AAL1668 KLAX-KIAH

Flight info

Callsign AAL1668
Flight time N/A
Altitude 35000
Route DOTSS2 CNERY BLH SPTFR Q4 FUSCO DIESL TTORO3
Aircraft A21N/M-SDE3FGHIRWY/LB1

Departure

Time 2026-04-25 06:10
Airport Los Angeles International Airport (KLAX)

Arrival

Time N/A
Airport George Bush Intercontinental Airport (KIAH)
Time Latitude Longitude Altitude Speed Heading
2026-04-25 05:22 33.94011 -118.40753 132 ft 0 kts 83°
2026-04-25 05:55 33.94010 -118.40766 132 ft 2 kts 83°
2026-04-25 05:55 33.94008 -118.40781 132 ft 2 kts 83°
2026-04-25 05:55 33.94006 -118.40797 132 ft 2 kts 82°
2026-04-25 05:55 33.94011 -118.40816 132 ft 2 kts 134°
2026-04-25 05:56 33.94023 -118.40826 132 ft 0 kts 170°
2026-04-25 05:56 33.94030 -118.40826 132 ft 1 kts 175°
2026-04-25 05:56 33.94031 -118.40826 132 ft 0 kts 174°
2026-04-25 06:02 33.94030 -118.40826 132 ft 0 kts 174°
2026-04-25 06:02 33.94013 -118.40824 132 ft 6 kts 174°
2026-04-25 06:02 33.93951 -118.40813 132 ft 13 kts 170°
2026-04-25 06:02 33.93877 -118.40769 134 ft 13 kts 138°
2026-04-25 06:03 33.93819 -118.40705 135 ft 12 kts 115°
2026-04-25 06:03 33.93817 -118.40600 133 ft 14 kts 82°
2026-04-25 06:03 33.93830 -118.40472 131 ft 16 kts 84°
2026-04-25 06:03 33.93843 -118.40337 127 ft 18 kts 84°
2026-04-25 06:04 33.93857 -118.40196 124 ft 20 kts 83°
2026-04-25 06:04 33.93872 -118.40044 122 ft 21 kts 84°
2026-04-25 06:04 33.93888 -118.39890 120 ft 21 kts 83°
2026-04-25 06:04 33.93903 -118.39732 119 ft 21 kts 83°
2026-04-25 06:05 33.93922 -118.39568 115 ft 22 kts 83°
2026-04-25 06:05 33.93940 -118.39396 112 ft 23 kts 83°
2026-04-25 06:05 33.93958 -118.39220 110 ft 23 kts 83°
2026-04-25 06:05 33.93975 -118.39052 109 ft 23 kts 83°
2026-04-25 06:06 33.93993 -118.38880 108 ft 23 kts 83°
2026-04-25 06:06 33.94010 -118.38712 107 ft 22 kts 83°
2026-04-25 06:06 33.94028 -118.38538 106 ft 22 kts 83°
2026-04-25 06:06 33.94044 -118.38373 105 ft 22 kts 83°
2026-04-25 06:07 33.94062 -118.38208 104 ft 22 kts 82°
2026-04-25 06:07 33.94076 -118.38065 103 ft 9 kts 87°
2026-04-25 06:07 33.94073 -118.38035 103 ft 0 kts 104°
2026-04-25 06:08 33.94067 -118.38018 103 ft 6 kts 125°
2026-04-25 06:09 33.94020 -118.37999 102 ft 9 kts 175°
2026-04-25 06:09 33.93982 -118.38046 102 ft 11 kts 262°
2026-04-25 06:09 33.93979 -118.38068 102 ft 4 kts 263°
2026-04-25 06:09 33.93957 -118.38286 104 ft 68 kts 263°
2026-04-25 06:10 33.93876 -118.39068 110 ft 140 kts 262°
2026-04-25 06:10 33.93751 -118.40269 407 ft 174 kts 262°
2026-04-25 06:10 33.93616 -118.41602 1056 ft 190 kts 262°
2026-04-25 06:10 33.93462 -118.43076 1716 ft 209 kts 263°
2026-04-25 06:11 33.93294 -118.44657 2353 ft 222 kts 261°
2026-04-25 06:11 33.92862 -118.46273 2899 ft 228 kts 242°
2026-04-25 06:11 33.92062 -118.47693 3541 ft 230 kts 232°
2026-04-25 06:11 33.91160 -118.49043 4179 ft 236 kts 231°
2026-04-25 06:12 33.90200 -118.50407 4679 ft 241 kts 230°
2026-04-25 06:12 33.89213 -118.51776 4940 ft 242 kts 230°
2026-04-25 06:12 33.88229 -118.53151 4961 ft 243 kts 231°
2026-04-25 06:12 33.87237 -118.54546 4967 ft 242 kts 230°
2026-04-25 06:13 33.86084 -118.55722 4942 ft 245 kts 208°
2026-04-25 06:13 33.84553 -118.56146 5044 ft 256 kts 180°
2026-04-25 06:13 33.82941 -118.55797 5642 ft 266 kts 168°
2026-04-25 06:14 33.79739 -118.54842 7411 ft 267 kts 169°
2026-04-25 06:14 33.78133 -118.54387 8214 ft 269 kts 170°
2026-04-25 06:14 33.76501 -118.53936 9014 ft 271 kts 170°
2026-04-25 06:14 33.74890 -118.53498 9780 ft 273 kts 171°
2026-04-25 06:15 33.73246 -118.53054 10508 ft 275 kts 171°
2026-04-25 06:15 33.71572 -118.52586 11204 ft 279 kts 168°
2026-04-25 06:15 33.69993 -118.51642 11802 ft 293 kts 143°
2026-04-25 06:15 33.68875 -118.49878 12391 ft 307 kts 117°
2026-04-25 06:16 33.68218 -118.47734 12960 ft 314 kts 111°
2026-04-25 06:16 33.67639 -118.45519 13523 ft 320 kts 110°
2026-04-25 06:16 33.67043 -118.43264 14120 ft 325 kts 111°
2026-04-25 06:16 33.66401 -118.40955 14708 ft 330 kts 112°
2026-04-25 06:17 33.65717 -118.38597 15052 ft 344 kts 112°
2026-04-25 06:17 33.64949 -118.35812 15347 ft 363 kts 108°
2026-04-25 06:17 33.64462 -118.32767 15642 ft 383 kts 98°
2026-04-25 06:17 33.64345 -118.29607 16117 ft 394 kts 91°
2026-04-25 06:18 33.64359 -118.26595 16618 ft 397 kts 90°
2026-04-25 06:18 33.64394 -118.23688 17096 ft 402 kts 90°
2026-04-25 06:18 33.64426 -118.20712 17714 ft 405 kts 90°
2026-04-25 06:18 33.64446 -118.17679 18337 ft 408 kts 91°
2026-04-25 06:19 33.64458 -118.14649 18899 ft 412 kts 91°
2026-04-25 06:19 33.64462 -118.11602 19458 ft 416 kts 91°
2026-04-25 06:19 33.64463 -118.08559 20003 ft 420 kts 91°
2026-04-25 06:19 33.64460 -118.05442 20544 ft 424 kts 91°
2026-04-25 06:20 33.64456 -118.02292 21075 ft 428 kts 91°
2026-04-25 06:20 33.64452 -117.99117 21592 ft 432 kts 91°
2026-04-25 06:20 33.64446 -117.95924 22111 ft 435 kts 91°
2026-04-25 06:20 33.64440 -117.92725 22607 ft 439 kts 91°
2026-04-25 06:21 33.64433 -117.89475 23098 ft 442 kts 91°
2026-04-25 06:21 33.64425 -117.86166 23582 ft 446 kts 91°
2026-04-25 06:21 33.64396 -117.82856 24042 ft 449 kts 94°
2026-04-25 06:21 33.64165 -117.79570 24478 ft 451 kts 99°
2026-04-25 06:22 33.63653 -117.76266 24905 ft 453 kts 106°
2026-04-25 06:22 33.62914 -117.73028 25345 ft 455 kts 109°
2026-04-25 06:22 33.62096 -117.69782 25750 ft 458 kts 110°
2026-04-25 06:22 33.61258 -117.66525 26155 ft 462 kts 110°
2026-04-25 06:23 33.60419 -117.63242 26551 ft 465 kts 110°
2026-04-25 06:23 33.59587 -117.59946 26921 ft 469 kts 110°
2026-04-25 06:23 33.58754 -117.56612 27294 ft 472 kts 110°
2026-04-25 06:23 33.57921 -117.53264 27670 ft 475 kts 109°
2026-04-25 06:24 33.57081 -117.49876 28042 ft 478 kts 110°
2026-04-25 06:24 33.56251 -117.46529 28398 ft 480 kts 109°
2026-04-25 06:24 33.55394 -117.43072 28864 ft 480 kts 109°
2026-04-25 06:24 33.54565 -117.39731 29352 ft 479 kts 109°
2026-04-25 06:25 33.53711 -117.36301 29804 ft 479 kts 110°
2026-04-25 06:25 33.52878 -117.32946 30215 ft 479 kts 111°
2026-04-25 06:25 33.52046 -117.29527 30619 ft 480 kts 109°
2026-04-25 06:25 33.51348 -117.26090 31016 ft 481 kts 106°
2026-04-25 06:26 33.50823 -117.22657 31372 ft 484 kts 102°
2026-04-25 06:26 33.50468 -117.19151 31715 ft 486 kts 98°
2026-04-25 06:26 33.50290 -117.15578 32031 ft 489 kts 94°
2026-04-25 06:26 33.50236 -117.12040 32340 ft 490 kts 93°
2026-04-25 06:27 33.50210 -117.08437 32631 ft 491 kts 93°
2026-04-25 06:27 33.50188 -117.04844 32909 ft 493 kts 93°
2026-04-25 06:27 33.50158 -117.01289 33185 ft 494 kts 93°
2026-04-25 06:27 33.50119 -116.97679 33412 ft 496 kts 94°
2026-04-25 06:28 33.50074 -116.94057 33622 ft 499 kts 94°
2026-04-25 06:28 33.50022 -116.90385 33820 ft 502 kts 94°
2026-04-25 06:28 33.49968 -116.86699 34046 ft 504 kts 94°
2026-04-25 06:28 33.49911 -116.82944 34314 ft 505 kts 95°
2026-04-25 06:29 33.49853 -116.79243 34557 ft 506 kts 94°
2026-04-25 06:29 33.49792 -116.75547 34774 ft 508 kts 94°
2026-04-25 06:29 33.49728 -116.71831 34933 ft 511 kts 94°
2026-04-25 06:30 33.49599 -116.64266 34951 ft 514 kts 94°
2026-04-25 06:30 33.49471 -116.56706 34956 ft 514 kts 94°
2026-04-25 06:31 33.49334 -116.49066 34957 ft 514 kts 94°
2026-04-25 06:31 33.49191 -116.41388 34944 ft 515 kts 94°
2026-04-25 06:32 33.49077 -116.33542 34922 ft 515 kts 95°
2026-04-25 06:32 33.48965 -116.25714 34900 ft 516 kts 95°
2026-04-25 06:33 33.48845 -116.18070 34881 ft 515 kts 94°
2026-04-25 06:33 33.48788 -116.10465 34861 ft 517 kts 90°
2026-04-25 06:34 33.49399 -116.02794 34837 ft 520 kts 82°
2026-04-25 06:34 33.50876 -115.95216 34809 ft 521 kts 72°
2026-04-25 06:35 33.53041 -115.87823 34806 ft 520 kts 68°
2026-04-25 06:35 33.55241 -115.80635 34818 ft 520 kts 69°
2026-04-25 06:36 33.57386 -115.73394 34833 ft 520 kts 70°
2026-04-25 06:36 33.59491 -115.66134 34847 ft 520 kts 69°
2026-04-25 06:37 33.61591 -115.58878 34854 ft 521 kts 69°
2026-04-25 06:37 33.63393 -115.51572 34855 ft 522 kts 77°
2026-04-25 06:38 33.64400 -115.44023 34846 ft 521 kts 86°
2026-04-25 06:38 33.64527 -115.36377 34835 ft 518 kts 96°
2026-04-25 06:39 33.63812 -115.28888 34824 ft 513 kts 105°
2026-04-25 06:39 33.62339 -115.21552 34820 ft 510 kts 111°
2026-04-25 06:40 33.60965 -115.14208 34813 ft 515 kts 103°
2026-04-25 06:40 33.60366 -115.06627 34812 ft 520 kts 95°
2026-04-25 06:41 33.60200 -114.98957 34805 ft 521 kts 94°
2026-04-25 06:41 33.60041 -114.91340 34800 ft 521 kts 95°
2026-04-25 06:42 33.59824 -114.83627 34795 ft 521 kts 95°
2026-04-25 06:42 33.59408 -114.76011 34785 ft 518 kts 101°
2026-04-25 06:43 33.58271 -114.68522 34787 ft 516 kts 107°
2026-04-25 06:43 33.56822 -114.61086 34786 ft 514 kts 108°